1509256800.51,56123,9.75,71174.5,-4.23,-4.85,-4.77,0,*5B
1509256801.78,56124,9.75,71182.8,-4.23,-4.85,-4.77,0,*5C
1509256803.05,56125,9.75,71208.5,-4.23,-4.73,-4.77,0,*54
1509256804.31,56126,9.75,71188.0,-4.23,-4.77,-4.77,0,*53
1509256805.58,56127,9.75,71184.8,-4.23,-4.85,-4.77,0,*5F
1509256806.83,56128,9.75,71174.8,-4.25,-4.89,-4.77,0,*5A
1509256808.09,56129,9.75,71188.3,-4.25,-4.89,-4.81,0,*52
1509256809.36,56130,9.75,71186.8,-4.23,-4.77,-4.85,0,*59
1509256810.62,56131,9.75,71172.3,-4.23,-4.85,-4.77,0,*58
1509256811.88,56132,9.75,71170.5,-4.21,-4.77,-4.85,0,*59
1509256813.14,56133,9.75,71154.0,-4.23,-4.77,-4.77,0,*57
1509256814.41,56134,9.75,71136.8,-4.23,-4.77,-4.77,0,*50
1509256815.68,56135,9.75,71156.3,-4.23,-4.85,-4.77,0,*5C
1509256816.93,56136,9.75,71170.0,-4.25,-4.89,-4.77,0,*55
1509256818.18,56137,9.75,71146.5,-4.25,-4.89,-4.89,0,*55
1509256819.45,56138,9.75,71126.3,-4.23,-4.77,-4.77,0,*5C
1509256820.7,56139,9.75,71110.0,-4.25,-4.89,-4.81,0,*53
1509256821.95,56140,9.81,71126.5,-4.21,-4.85,-4.77,0,*5C
1509256823.22,56141,9.75,71154.3,-4.23,-4.85,-4.73,0,*5B
1509256824.47,56142,9.75,71176.3,-4.21,-4.85,-4.85,0,*53
1509256825.72,56143,9.75,71164.3,-4.25,-4.81,-4.89,0,*5E
1509256826.97,56144,9.75,71174.3,-4.25,-4.81,-4.81,0,*51
1509256828.22,56145,9.75,71160.8,-4.25,-4.81,-4.81,0,*50
1509256829.47,56146,9.75,71170.3,-4.25,-4.89,-4.77,0,*52
1509256830.72,56147,9.75,71178.8,-4.25,-4.93,-4.81,0,*51
1509256831.97,56148,9.75,71184.5,-4.25,-4.81,-4.81,0,*5D
1509256833.22,56149,9.75,71186.8,-4.25,-4.81,-4.81,0,*5C
1509256834.47,56150,9.75,71186.5,-4.25,-4.89,-4.81,0,*5C
1509256835.72,56151,9.75,71184.5,-4.21,-4.77,-4.85,0,*5C
1509256836.97,56152,9.81,71190.5,-4.25,-4.81,-4.89,0,*5E
1509256838.24,56153,9.81,71224.0,-4.23,-4.77,-4.77,0,*51
1509256839.51,56154,9.75,71224.3,-4.23,-4.77,-4.73,0,*52
1509256840.78,56155,9.75,71214.0,-4.23,-4.77,-4.77,0,*57
1509256842.02,56156,9.75,71202.3,-4.21,-4.77,-4.77,0,*56
1509256843.29,56157,9.75,71200.0,-4.23,-4.85,-4.77,0,*58
1509256844.56,56158,9.75,71200.0,-4.23,-4.73,-4.73,0,*5A
1509256845.84,56159,9.75,71200.0,-4.27,-4.81,-4.81,0,*5F
1509256847.1,56160,9.81,71184.3,-4.23,-4.77,-4.77,0,*51
1509256848.37,56161,9.75,71194.0,-4.23,-4.77,-4.77,0,*50
1509256849.64,56162,9.81,71192.0,-4.23,-4.77,-4.77,0,*53
1509256850.89,56163,9.75,71184.0,-4.25,-4.81,-4.81,0,*54
1509256852.13,56164,9.81,71196.0,-4.25,-4.81,-4.77,0,*5A
1509256853.4,56165,9.75,71194.0,-4.23,-4.77,-4.77,0,*54
1509256854.67,56166,9.75,71202.5,-4.23,-4.77,-4.77,0,*57
1509256855.92,56167,9.75,71212.8,-4.25,-4.81,-4.77,0,*59
1509256857.16,56168,9.75,71220.0,-4.25,-4.81,-4.77,0,*56
1509256858.41,56169,9.75,71218.5,-4.25,-4.81,-4.81,0,*5E
1509256859.68,56170,9.75,71226.0,-4.23,-4.73,-4.73,0,*50
1509256860.96,56171,9.75,71232.8,-4.23,-4.73,-4.73,0,*51
1509256862.22,56172,9.75,71228.8,-4.23,-4.77,-4.73,0,*56
1509256863.49,56173,9.75,71222.5,-4.23,-4.73,-4.77,0,*57
1509256864.74,56174,9.75,71224.5,-4.25,-4.81,-4.81,0,*52
1509256865.99,56175,9.75,71220.5,-4.25,-4.81,-4.77,0,*5A
1509256867.24,56176,9.81,71198.3,-4.25,-4.81,-4.77,0,*59
1509256868.49,56177,9.75,71192.5,-4.25,-4.81,-4.81,0,*51
1509256869.73,56178,9.81,71164.5,-4.25,-4.77,-4.77,0,*5E
1509256871.0,56179,9.75,71166.8,-4.23,-4.77,-4.77,0,*59
1509256872.25,56180,9.75,71162.8,-4.21,-4.77,-4.73,0,*59
1509256873.51,56181,9.75,71170.8,-4.23,-4.77,-4.73,0,*5A
1509256874.78,56182,9.75,71180.5,-4.23,-4.77,-4.77,0,*5D
1509256876.05,56183,9.75,71186.0,-4.23,-4.77,-4.77,0,*5C
1509256877.32,56184,9.75,71192.0,-4.23,-4.77,-4.77,0,*5B
1509256878.58,56185,9.75,71198.5,-4.23,-4.85,-4.77,0,*57
1509256879.85,56186,9.75,71196.8,-4.23,-4.77,-4.73,0,*5D
1509256881.1,56187,9.75,71206.3,-4.21,-4.77,-4.77,0,*5A
1509256882.36,56188,9.75,71216.8,-4.23,-4.77,-4.77,0,*57
1509256883.63,56189,9.75,71218.0,-4.23,-4.77,-4.73,0,*52
1509256884.9,56190,9.81,71218.3,-4.23,-4.77,-4.77,0,*5E
1509256886.15,56191,9.75,71218.8,-4.25,-4.81,-4.81,0,*59
1509256887.4,56192,9.81,71222.5,-4.21,-4.77,-4.73,0,*5A
1509256888.66,56193,9.75,71218.5,-4.23,-4.77,-4.77,0,*5D
1509256889.94,56194,9.75,71220.0,-4.23,-4.73,-4.73,0,*5A
1509256891.2,56195,9.75,71222.0,-4.23,-4.77,-4.77,0,*5B
1509256892.47,56196,9.75,71226.3,-4.23,-4.77,-4.77,0,*58
1509256893.72,56197,9.75,71224.3,-4.25,-4.81,-4.77,0,*56
1509256894.96,56198,9.75,71224.8,-4.21,-4.77,-4.73,0,*50
1509256896.23,56199,9.81,71230.0,-4.23,-4.77,-4.73,0,*53
1509256897.48,56200,9.81,71226.3,-4.21,-4.77,-4.77,0,*56
1509256898.75,56201,9.75,71218.5,-4.23,-4.77,-4.73,0,*51
1509256900.01,56202,9.81,71218.0,-4.23,-4.77,-4.77,0,*56
1509256901.28,56203,9.75,71216.0,-4.23,-4.77,-4.77,0,*57
1509256902.53,56204,9.81,71220.5,-4.21,-4.73,-4.77,0,*56
1509256903.78,56205,9.75,71218.5,-4.21,-4.77,-4.77,0,*53
1509256905.04,56206,9.75,71212.3,-4.23,-4.77,-4.77,0,*52
1509256906.31,56207,9.75,71216.8,-4.23,-4.73,-4.77,0,*57
1509256907.57,56208,9.75,71212.5,-4.21,-4.73,-4.73,0,*5E
1509256908.84,56209,9.75,71206.3,-4.23,-4.73,-4.73,0,*5D
1509256910.1,56210,9.75,71212.5,-4.23,-4.77,-4.77,0,*55
1509256911.35,56211,9.75,71208.5,-4.21,-4.77,-4.77,0,*56
1509256912.62,56212,9.75,71218.5,-4.23,-4.77,-4.73,0,*53
1509256913.89,56213,9.81,71228.0,-4.23,-4.77,-4.73,0,*52
1509256915.16,56214,9.75,71226.8,-4.23,-4.77,-4.73,0,*55
1509256916.43,56215,9.75,71220.3,-4.23,-4.73,-4.73,0,*50
1509256917.69,56216,9.81,71216.5,-4.23,-4.77,-4.77,0,*53
1509256918.94,56217,9.75,71202.5,-4.21,-4.77,-4.73,0,*54
1509256920.21,56218,9.81,71204.5,-4.23,-4.77,-4.77,0,*5D
1509256921.48,56219,9.75,71206.0,-4.23,-4.77,-4.77,0,*5C
1509256922.75,56220,9.75,71204.8,-4.23,-4.73,-4.77,0,*52
1509256924.02,56221,9.75,71216.5,-4.23,-4.73,-4.77,0,*53
1509256925.26,56222,9.75,71214.3,-4.21,-4.77,-4.73,0,*52
1509256926.53,56223,9.75,71204.0,-4.23,-4.77,-4.77,0,*55
1509256927.78,56224,9.75,71206.3,-4.21,-4.73,-4.77,0,*54
1509256929.03,56225,9.81,71206.8,-4.21,-4.85,-4.73,0,*58
1509256930.3,56226,9.81,71204.5,-4.23,-4.77,-4.77,0,*50
1509256931.56,56227,9.75,71200.5,-4.23,-4.77,-4.77,0,*51
1509256932.83,56228,9.75,71206.5,-4.23,-4.77,-4.73,0,*5A
1509256934.08,56229,9.75,71206.8,-4.21,-4.77,-4.73,0,*59
1509256935.35,56230,9.75,71218.0,-4.23,-4.77,-4.73,0,*53
1509256936.6,56231,9.75,71228.0,-4.21,-4.77,-4.73,0,*50
1509256937.86,56232,9.81,71234.5,-4.23,-4.77,-4.77,0,*55
1509256939.13,56233,9.75,71234.5,-4.23,-4.77,-4.77,0,*54
1509256940.4,56234,9.75,71232.3,-4.23,-4.77,-4.77,0,*53
1509256941.66,56235,9.75,71226.5,-4.23,-4.77,-4.73,0,*56
1509256942.93,56236,9.75,71226.3,-4.23,-4.85,-4.77,0,*5C
1509256944.2,56237,9.75,71230.0,-4.23,-4.77,-4.73,0,*54
1509256945.45,56238,9.81,71230.3,-4.21,-4.77,-4.73,0,*59
1509256946.72,56239,9.75,71224.5,-4.23,-4.77,-4.73,0,*5A
1509256947.96,56240,9.75,71216.5,-4.21,-4.77,-4.77,0,*52
1509256949.23,56241,9.81,71228.3,-4.23,-4.77,-4.77,0,*51
1509256950.5,56242,9.75,71222.0,-4.23,-4.77,-4.77,0,*52
1509256951.76,56243,9.75,71214.8,-4.23,-4.77,-4.73,0,*57
1509256953.01,56244,9.75,71208.0,-4.21,-4.77,-4.77,0,*56
1509256954.28,56245,9.75,71200.3,-4.23,-4.77,-4.73,0,*51
1509256955.55,56246,9.75,71206.3,-4.23,-4.73,-4.77,0,*52
1509256956.82,56247,9.75,71208.8,-4.23,-4.77,-4.77,0,*57
1509256958.09,56248,9.75,71204.8,-4.23,-4.73,-4.77,0,*5C
1509256959.34,56249,9.75,71198.0,-4.21,-4.73,-4.77,0,*5F
1509256960.61,56250,9.81,71164.3,-4.23,-4.85,-4.73,0,*58
1509256961.88,56251,9.75,71158.8,-4.23,-4.73,-4.77,0,*54
1509256963.14,56252,9.81,71158.8,-4.23,-4.77,-4.77,0,*53
1509256964.41,56253,9.75,71154.8,-4.23,-4.77,-4.77,0,*52
1509256965.66,56254,9.75,71174.3,-4.21,-4.77,-4.73,0,*53
1509256966.91,56255,9.75,71168.0,-4.21,-4.77,-4.77,0,*56
1509256968.16,56256,9.75,71164.8,-4.21,-4.73,-4.73,0,*55
1509256969.43,56257,9.75,71172.5,-4.23,-4.73,-4.77,0,*52
1509256970.69,56258,9.75,71184.5,-4.23,-4.77,-4.73,0,*5D
1509256971.95,56259,9.75,71196.5,-4.21,-4.73,-4.73,0,*5A
1509256973.19,56260,9.75,71212.0,-4.21,-4.85,-4.73,0,*59
1509256974.47,56261,9.75,71214.3,-4.23,-4.73,-4.73,0,*53
1509256975.71,56262,9.75,71214.5,-4.21,-4.77,-4.77,0,*52
1509256976.96,56263,9.75,71208.5,-4.21,-4.77,-4.73,0,*57
1509256978.23,56264,9.75,71210.3,-4.23,-4.77,-4.73,0,*52
1509256979.48,56265,9.81,71202.0,-4.21,-4.73,-4.77,0,*51
1509256980.73,56266,9.81,71206.8,-4.21,-4.77,-4.73,0,*52
1509256981.97,56267,9.81,71204.3,-4.21,-4.77,-4.73,0,*53
1509256983.22,56268,9.75,71206.5,-4.21,-4.73,-4.77,0,*5C
1509256984.49,56269,9.81,71220.3,-4.23,-4.77,-4.77,0,*5B
1509256985.76,56270,9.75,71214.5,-4.23,-4.77,-4.73,0,*57
1509256987.0,56271,9.75,71210.3,-4.21,-4.77,-4.77,0,*50
1509256988.25,56272,9.75,71204.5,-4.21,-4.77,-4.73,0,*57
1509256989.52,56273,9.75,71212.5,-4.23,-4.73,-4.77,0,*54
1509256990.79,56274,9.81,71216.3,-4.23,-4.77,-4.73,0,*53
1509256992.06,56275,9.75,71206.3,-4.23,-4.77,-4.73,0,*52
1509256993.33,56276,9.75,71204.0,-4.23,-4.73,-4.73,0,*55
1509256994.58,56277,9.75,71200.0,-4.21,-4.77,-4.77,0,*56
1509256995.84,56278,9.75,71200.3,-4.23,-4.77,-4.73,0,*5F
1509256997.12,56279,9.75,71198.0,-4.23,-4.73,-4.77,0,*5E
1509256998.38,56280,9.75,71198.8,-4.23,-4.77,-4.77,0,*5C
1509256999.63,56281,9.75,71196.5,-4.21,-4.77,-4.73,0,*5B
1509257000.88,56282,9.81,71200.8,-4.21,-4.77,-4.73,0,*58
1509257002.12,56283,9.75,71192.3,-4.21,-4.77,-4.73,0,*59
1509257003.38,56284,9.75,71186.0,-4.21,-4.73,-4.73,0,*5A
1509257004.65,56285,9.75,71182.8,-4.23,-4.73,-4.77,0,*5D
1509257005.89,56286,9.81,71210.0,-4.21,-4.77,-4.73,0,*5C
1509257007.14,56287,9.75,71212.0,-4.21,-4.73,-4.73,0,*59
1509257008.38,56288,9.81,71214.0,-4.21,-4.65,-4.73,0,*51
1509257009.6,56289,9.75,71212.5,-4.21,-4.73,-4.65,0,*50
1509257010.85,56290,9.81,71216.8,-4.21,-4.77,-4.73,0,*5B
1509257012.12,56291,9.81,71220.5,-4.23,-4.77,-4.77,0,*5C
1509257013.37,56292,9.75,71200.3,-4.21,-4.77,-4.73,0,*59
1509257014.62,56293,9.75,71192.5,-4.21,-4.73,-4.77,0,*58
1509257015.87,56294,9.75,71196.8,-4.21,-4.73,-4.73,0,*5B
1509257017.14,56295,9.75,71194.5,-4.19,-4.69,-4.69,0,*51
1509257018.39,56296,9.81,71204.5,-4.21,-4.73,-4.73,0,*59
1509257019.66,56297,9.81,71206.0,-4.19,-4.69,-4.69,0,*53
1509257020.94,56298,9.75,71202.0,-4.19,-4.69,-4.69,0,*5C
1509257022.17,56299,9.75,71200.3,-4.21,-4.73,-4.61,0,*55
1509257023.42,56300,9.81,71196.8,-4.21,-4.73,-4.77,0,*53
1509257024.67,56301,9.75,71196.0,-4.21,-4.73,-4.73,0,*56
1509257025.9,56302,9.75,71196.3,-4.21,-4.73,-4.65,0,*52
1509257027.15,56303,9.75,71206.8,-4.21,-4.77,-4.73,0,*50
1509257028.42,56304,9.75,71208.5,-4.19,-4.69,-4.69,0,*58
1509257029.69,56305,9.75,71206.0,-4.19,-4.73,-4.69,0,*52
1509257030.97,56306,9.75,71204.3,-4.19,-4.69,-4.69,0,*5A
1509257032.22,56307,9.75,71214.8,-4.19,-4.69,-4.61,0,*53
1509257033.44,56308,9.75,71210.8,-4.21,-4.77,-4.65,0,*5C
1509257034.65,56309,9.75,71216.8,-4.21,-4.65,-4.65,0,*5E
1509257035.88,56310,9.75,71218.3,-4.17,-4.65,-4.69,0,*5F
1509257037.16,56311,9.75,71218.5,-4.19,-4.73,-4.69,0,*57
1509257038.41,56312,9.75,71224.0,-4.19,-4.73,-4.61,0,*5C
1509257039.68,56313,9.75,71226.0,-4.19,-4.69,-4.69,0,*5E
1509257040.96,56314,9.75,71222.8,-4.19,-4.69,-4.69,0,*59
1509257042.23,56315,9.75,71222.5,-4.19,-4.69,-4.69,0,*58
1509257043.5,56316,9.75,71212.3,-4.19,-4.69,-4.69,0,*5B
1509257044.78,56317,9.75,71204.5,-4.19,-4.69,-4.69,0,*5A
1509257046.05,56318,9.75,71208.0,-4.19,-4.69,-4.69,0,*55
1509257047.3,56319,9.75,71204.3,-4.19,-4.69,-4.61,0,*5C
1509257048.55,56320,9.75,71206.5,-4.19,-4.69,-4.61,0,*56
1509257049.8,56321,9.75,71204.3,-4.19,-4.69,-4.61,0,*57
1509257051.04,56322,9.75,71210.3,-4.19,-4.69,-4.61,0,*54
1509257052.32,56323,9.75,71208.8,-4.19,-4.73,-4.69,0,*56
1509257053.59,56324,9.75,71216.3,-4.19,-4.69,-4.73,0,*51
1509257054.84,56325,9.81,71220.5,-4.19,-4.69,-4.61,0,*53
1509257056.11,56326,9.75,71216.8,-4.19,-4.69,-4.69,0,*58
1509257057.39,56327,9.75,71224.3,-4.19,-4.73,-4.69,0,*52
1509257058.64,56328,9.75,71230.0,-4.19,-4.69,-4.61,0,*5E
1509257059.91,56329,9.81,71238.8,-4.19,-4.69,-4.69,0,*57
1509257061.19,56330,9.75,71226.5,-4.19,-4.73,-4.69,0,*54
1509257062.46,56331,9.75,71226.3,-4.19,-4.69,-4.69,0,*5E
1509257063.71,56332,9.75,71218.0,-4.19,-4.73,-4.61,0,*5E
1509257064.96,56333,9.75,71208.0,-4.19,-4.73,-4.61,0,*5F
1509257066.21,56334,9.75,71200.3,-4.19,-4.69,-4.61,0,*53
1509257067.42,56335,9.75,71202.5,-4.17,-4.65,-4.53,0,*51
1509257068.69,56336,9.81,71192.3,-4.19,-4.69,-4.69,0,*59
1509257069.97,56337,9.75,71186.5,-4.19,-4.73,-4.73,0,*58
1509257071.19,56338,9.75,71176.8,-4.17,-4.69,-4.65,0,*55
1509257072.4,56339,9.75,71174.5,-4.17,-4.65,-4.65,0,*58
1509257073.61,56340,9.81,71194.5,-4.17,-4.65,-4.65,0,*56
1509257074.82,56341,9.75,71190.5,-4.17,-4.65,-4.57,0,*56
1509257076.09,56342,9.75,71190.3,-4.19,-4.69,-4.69,0,*5A
1509257077.35,56343,9.75,71190.3,-4.19,-4.61,-4.69,0,*53
1509257078.57,56344,9.75,71196.0,-4.17,-4.69,-4.65,0,*5E
1509257079.84,56345,9.75,71198.5,-4.19,-4.69,-4.69,0,*5D
1509257081.12,56346,9.75,71194.3,-4.19,-4.69,-4.69,0,*5E
1509257082.39,56347,9.75,71222.8,-4.19,-4.69,-4.69,0,*5F
1509257083.62,56348,9.81,71188.3,-4.17,-4.65,-4.69,0,*52
1509257084.83,56349,9.75,71186.8,-4.17,-4.57,-4.65,0,*5E
1509257086.11,56350,9.75,71192.0,-4.19,-4.69,-4.69,0,*59
1509257087.34,56351,9.75,71180.3,-4.17,-4.65,-4.69,0,*5A
1509257088.57,56352,9.75,71178.8,-4.17,-4.69,-4.65,0,*59
1509257089.8,56353,9.75,71164.8,-4.17,-4.65,-4.69,0,*58
1509257091.01,56354,9.75,71160.8,-4.17,-4.65,-4.65,0,*53
1509257092.21,56355,9.75,71140.5,-4.17,-4.65,-4.65,0,*52
1509257093.42,56356,9.81,71150.8,-4.17,-4.57,-4.57,0,*51
1509257094.63,56357,9.75,71152.5,-4.17,-4.65,-4.57,0,*51
1509257095.84,56358,9.75,71158.3,-4.17,-4.65,-4.57,0,*5E
1509257097.07,56359,9.75,71162.0,-4.17,-4.65,-4.69,0,*52
1509257098.35,56360,9.75,71184.8,-4.19,-4.69,-4.69,0,*5A
1509257099.56,56361,9.75,71194.5,-4.17,-4.65,-4.65,0,*55
1509257100.77,56362,9.75,71198.5,-4.17,-4.57,-4.65,0,*57
1509257101.97,56363,9.75,71182.5,-4.17,-4.65,-4.65,0,*57
1509257103.25,56364,9.75,71182.8,-4.19,-4.69,-4.69,0,*5E
1509257104.46,56365,9.75,71184.5,-4.17,-4.65,-4.57,0,*50
1509257105.66,56366,9.75,71190.0,-4.17,-4.65,-4.57,0,*53
1509257106.87,56367,9.75,71164.3,-4.17,-4.65,-4.57,0,*52
1509257108.08,56368,9.81,71168.8,-4.17,-4.65,-4.65,0,*5C
1509257109.33,56369,9.75,71166.8,-4.19,-4.69,-4.61,0,*5B
1509257110.54,56370,9.75,71170.0,-4.17,-4.65,-4.65,0,*55
1509257111.75,56371,9.75,71172.3,-4.17,-4.65,-4.57,0,*55
1509257112.96,56372,9.75,71170.3,-4.17,-4.57,-4.57,0,*57
1509257114.19,56373,9.75,71162.0,-4.19,-4.57,-4.61,0,*5D
1509257115.4,56374,9.75,71186.3,-4.17,-4.65,-4.57,0,*50
1509257116.61,56375,9.75,71176.3,-4.17,-4.65,-4.57,0,*51
1509257117.82,56376,9.75,71182.5,-4.17,-4.65,-4.57,0,*52
1509257119.09,56377,9.75,71178.5,-4.19,-4.69,-4.69,0,*5C
1509257120.3,56378,9.81,71174.5,-4.17,-4.65,-4.65,0,*5D
1509257121.53,56379,9.75,71172.0,-4.17,-4.65,-4.69,0,*50
1509257122.74,56380,9.75,71176.3,-4.17,-4.65,-4.65,0,*5A
1509257123.97,56381,9.75,71200.3,-4.15,-4.57,-4.65,0,*58
1509257125.21,56382,9.75,71190.3,-4.15,-4.57,-4.65,0,*5B
1509257126.44,56383,9.75,71186.5,-4.15,-4.57,-4.65,0,*5A
1509257127.65,56384,9.75,71184.8,-4.17,-4.65,-4.65,0,*5E
1509257128.86,56385,9.75,71180.8,-4.17,-4.65,-4.65,0,*5F
1509257130.07,56386,9.75,71174.3,-4.17,-4.65,-4.65,0,*5C
1509257131.32,56387,9.75,71184.5,-4.19,-4.69,-4.61,0,*5B
1509257132.52,56388,9.75,71186.8,-4.17,-4.65,-4.57,0,*53
1509257133.76,56389,9.75,71176.8,-4.15,-4.57,-4.57,0,*51
1509257134.99,56390,9.81,71200.3,-4.15,-4.65,-4.57,0,*58
1509257136.24,56391,9.75,71208.5,-4.15,-4.69,-4.65,0,*54
1509257137.47,56392,9.81,71200.3,-4.15,-4.65,-4.57,0,*5A
1509257138.7,56393,9.75,71192.0,-4.15,-4.65,-4.57,0,*5B
1509257139.96,56394,9.75,71208.3,-4.15,-4.69,-4.57,0,*50
1509257141.17,56395,9.75,71206.8,-4.17,-4.57,-4.53,0,*5A
1509257142.37,56396,9.75,71196.0,-4.13,-4.61,-4.53,0,*58
1509257143.61,56397,9.75,71200.0,-4.15,-4.65,-4.57,0,*5F
1509257144.84,56398,9.75,71212.5,-4.15,-4.65,-4.65,0,*51
1509257146.05,56399,9.75,71214.0,-4.17,-4.65,-4.57,0,*53
1509257147.28,56400,9.75,71206.5,-4.15,-4.57,-4.57,0,*57
1509257148.52,56401,9.75,71158.3,-4.15,-4.57,-4.57,0,*56
1509257149.75,56402,9.75,71146.8,-4.15,-4.65,-4.57,0,*54
1509257150.98,56403,9.75,71170.3,-4.15,-4.57,-4.57,0,*54
1509257152.23,56404,9.75,71178.5,-4.15,-4.69,-4.57,0,*5E
1509257153.47,56405,9.75,71182.0,-4.15,-4.65,-4.65,0,*52
1509257154.7,56406,9.75,71162.0,-4.15,-4.65,-4.65,0,*51
1509257155.93,56407,9.75,71182.8,-4.15,-4.65,-4.65,0,*50
1509257157.14,56408,9.75,71146.3,-4.13,-4.61,-4.61,0,*59
1509257158.34,56409,9.75,71154.8,-4.13,-4.53,-4.53,0,*58
1509257159.57,56410,9.75,71172.8,-4.15,-4.65,-4.57,0,*57
1509257160.81,56411,9.75,71192.8,-4.15,-4.65,-4.57,0,*56
1509257162.06,56412,9.81,71204.8,-4.15,-4.69,-4.65,0,*58
1509257163.31,56413,9.81,71192.5,-4.15,-4.69,-4.57,0,*58
1509257164.51,56414,9.75,71198.0,-4.13,-4.61,-4.61,0,*54
1509257165.72,56415,9.75,71214.3,-4.13,-4.53,-4.61,0,*54
1509257166.95,56416,9.75,71236.3,-4.15,-4.65,-4.65,0,*50
1509257168.16,56417,9.75,71234.5,-4.13,-4.65,-4.53,0,*52
1509257169.39,56418,9.81,71224.8,-4.15,-4.65,-4.57,0,*5F
1509257170.64,56419,9.75,71204.5,-4.15,-4.69,-4.65,0,*53
1509257171.85,56420,9.75,71188.8,-4.13,-4.65,-4.65,0,*53
1509257173.08,56421,9.75,71176.0,-4.15,-4.65,-4.65,0,*54
1509257174.28,56422,9.81,71108.5,-4.13,-4.53,-4.61,0,*50
1509257175.49,56423,9.75,71130.8,-4.13,-4.53,-4.53,0,*50
1509257176.74,56424,9.81,71176.3,-4.15,-4.69,-4.65,0,*5D
1509257177.99,56425,9.81,71190.5,-4.15,-4.69,-4.57,0,*5D
1509257179.2,56426,9.75,71176.5,-4.13,-4.61,-4.53,0,*54
1509257180.41,56427,9.75,71198.0,-4.13,-4.61,-4.53,0,*55
1509257181.61,56428,9.75,71200.3,-4.13,-4.61,-4.53,0,*5A
1509257182.86,56429,9.75,71196.5,-4.15,-4.69,-4.65,0,*50
1509257184.07,56430,9.75,71196.5,-4.13,-4.61,-4.53,0,*53
1509257185.3,56431,9.81,71202.5,-4.15,-4.65,-4.57,0,*54
1509257186.54,56432,9.81,71224.3,-4.15,-4.65,-4.57,0,*57
1509257187.74,56433,9.81,71214.0,-4.13,-4.61,-4.53,0,*50
1509257188.98,56434,9.75,71206.3,-4.15,-4.57,-4.57,0,*50
1509257190.19,56435,9.75,71206.8,-4.13,-4.61,-4.53,0,*56
1509257191.39,56436,9.81,71204.8,-4.13,-4.53,-4.53,0,*54
1509257192.6,56437,9.81,71182.3,-4.13,-4.53,-4.53,0,*55
1509257193.8,56438,9.75,71168.5,-4.13,-4.61,-4.53,0,*5B
1509257195.01,56439,9.81,71172.8,-4.13,-4.61,-4.53,0,*5A
1509257196.22,56440,9.75,71168.5,-4.13,-4.61,-4.49,0,*5F
1509257197.43,56441,9.75,71164.3,-4.13,-4.57,-4.57,0,*54
1509257198.64,56442,9.75,71170.0,-4.13,-4.61,-4.53,0,*56
1509257199.87,56443,9.81,71202.3,-4.15,-4.65,-4.57,0,*51
1509257201.07,56444,9.75,71202.0,-4.13,-4.53,-4.53,0,*51
1509257202.28,56445,9.81,71230.0,-4.13,-4.53,-4.53,0,*50
1509257203.49,56446,9.75,71214.8,-4.13,-4.61,-4.53,0,*52
1509257204.69,56447,9.81,71218.8,-4.13,-4.49,-4.53,0,*59
1509257205.9,56448,9.75,71214.0,-4.13,-4.49,-4.53,0,*56
1509257207.1,56449,9.75,71208.8,-4.13,-4.53,-4.53,0,*5C
1509257208.31,56450,9.81,71216.5,-4.13,-4.61,-4.53,0,*55
1509257209.52,56451,9.75,71192.8,-4.13,-4.61,-4.53,0,*54
1509257210.72,56452,9.75,71194.5,-4.13,-4.53,-4.53,0,*56
1509257211.95,56453,9.81,71208.3,-4.11,-4.53,-4.53,0,*55
1509257213.15,56454,9.81,71216.3,-4.13,-4.49,-4.53,0,*5B
1509257214.36,56455,9.75,71198.0,-4.13,-4.53,-4.49,0,*5A
1509257215.56,56456,9.75,71202.8,-4.13,-4.53,-4.49,0,*59
1509257216.76,56457,9.75,71206.5,-4.13,-4.61,-4.53,0,*52
1509257217.97,56458,9.75,71210.5,-4.13,-4.53,-4.49,0,*57
1509257219.17,56459,9.75,71204.5,-4.13,-4.49,-4.49,0,*5D
1509257220.37,56460,9.75,71204.5,-4.13,-4.53,-4.53,0,*57
1509257221.6,56461,9.75,71204.3,-4.11,-4.53,-4.53,0,*54
1509257222.82,56462,9.75,71196.5,-4.11,-4.53,-4.49,0,*5C
1509257224.04,56463,9.81,71184.8,-4.11,-4.53,-4.61,0,*57
1509257225.27,56464,9.75,71160.3,-4.11,-4.53,-4.61,0,*50
1509257226.49,56465,9.75,71176.8,-4.11,-4.53,-4.53,0,*50
1509257227.72,56466,9.75,71186.3,-4.11,-4.49,-4.53,0,*58
1509257228.94,56467,9.75,71192.8,-4.11,-4.53,-4.53,0,*52
1509257230.17,56468,9.75,71180.3,-4.11,-4.53,-4.53,0,*5D
1509257231.39,56469,9.75,71184.8,-4.11,-4.53,-4.53,0,*5C
1509257232.6,56470,9.75,71214.8,-4.13,-4.53,-4.53,0,*56
1509257233.8,56471,9.81,71222.8,-4.13,-4.61,-4.53,0,*56
1509257235.01,56472,9.75,71194.3,-4.13,-4.53,-4.53,0,*54
1509257236.22,56473,9.75,71196.0,-4.13,-4.61,-4.53,0,*54
1509257237.45,56474,9.75,71198.5,-4.11,-4.61,-4.53,0,*51
1509257238.67,56475,9.81,71204.5,-4.11,-4.49,-4.53,0,*5A
1509257239.9,56476,9.81,71202.8,-4.11,-4.61,-4.53,0,*53
1509257241.1,56477,9.75,71206.8,-4.09,-4.53,-4.53,0,*5A
1509257242.3,56478,9.75,71202.3,-4.09,-4.61,-4.53,0,*54
1509257243.52,56479,9.81,71198.8,-4.11,-4.53,-4.49,0,*56
1509257244.71,56480,9.81,71186.0,-4.09,-4.53,-4.49,0,*59
1509257245.94,56481,9.81,71184.0,-4.11,-4.61,-4.53,0,*5B
1509257247.15,56482,9.81,71194.0,-4.13,-4.61,-4.53,0,*5A
1509257248.34,56483,9.75,71186.5,-4.09,-4.49,-4.49,0,*51
1509257249.54,56484,9.75,71188.8,-4.09,-4.53,-4.53,0,*56
1509257250.74,56485,9.81,71200.8,-4.09,-4.61,-4.61,0,*57
1509257251.97,56486,9.75,71200.5,-4.11,-4.53,-4.53,0,*5D
1509257253.19,56487,9.75,71186.3,-4.11,-4.53,-4.53,0,*5C
1509257254.42,56488,9.81,71186.8,-4.11,-4.65,-4.53,0,*56
1509257255.62,56489,9.81,71168.5,-4.09,-4.61,-4.49,0,*51
1509257256.84,56490,9.81,71172.0,-4.11,-4.53,-4.49,0,*51
1509257258.06,56491,9.75,71174.3,-4.11,-4.53,-4.53,0,*5B
1509257259.29,56492,9.75,71158.0,-4.11,-4.61,-4.53,0,*59
1509257260.51,56493,9.81,71180.3,-4.11,-4.53,-4.49,0,*52
1509257261.71,56494,9.81,71182.0,-4.09,-4.61,-4.53,0,*56
1509257262.91,56495,9.75,71174.3,-4.09,-4.61,-4.53,0,*57
1509257264.14,56496,9.75,71158.0,-4.11,-4.53,-4.53,0,*5C
1509257265.36,56497,9.75,71178.0,-4.11,-4.53,-4.53,0,*5D
1509257266.59,56498,9.75,71162.5,-4.11,-4.61,-4.49,0,*58
1509257267.81,56499,9.81,71176.5,-4.11,-4.53,-4.53,0,*53
1509257269.01,56500,9.75,71164.5,-4.09,-4.53,-4.61,0,*5A
1509257270.21,56501,9.75,71172.3,-4.09,-4.53,-4.53,0,*5A
1509257271.41,56502,9.75,71158.5,-4.09,-4.53,-4.53,0,*59
1509257272.61,56503,9.75,71166.8,-4.09,-4.61,-4.53,0,*59
1509257273.8,56504,9.75,71178.5,-4.09,-4.53,-4.49,0,*54
1509257275.0,56505,9.75,71192.0,-4.09,-4.53,-4.53,0,*5E
1509257276.21,56506,9.75,71174.0,-4.09,-4.61,-4.53,0,*5C
1509257277.43,56507,9.81,71184.0,-4.11,-4.53,-4.53,0,*55
1509257278.63,56508,9.81,71180.0,-4.09,-4.53,-4.53,0,*53
1509257279.85,56509,9.75,71152.8,-4.11,-4.49,-4.53,0,*50
1509257281.05,56510,9.81,71154.0,-4.09,-4.61,-4.53,0,*5B
1509257282.26,56511,9.81,71170.3,-4.09,-4.61,-4.53,0,*5A
1509257283.46,56512,9.81,71184.3,-4.09,-4.65,-4.53,0,*5D
1509257284.65,56513,9.75,71192.0,-4.09,-4.53,-4.61,0,*58
1509257285.88,56514,9.81,71202.3,-4.11,-4.61,-4.53,0,*56
1509257287.08,56515,9.75,71222.0,-4.09,-4.61,-4.49,0,*55
1509257288.28,56516,9.81,71218.0,-4.09,-4.61,-4.53,0,*5D
1509257289.48,56517,9.81,71208.5,-4.09,-4.61,-4.53,0,*5C
1509257290.68,56518,9.81,71200.3,-4.09,-4.53,-4.53,0,*52
1509257291.88,56519,9.81,71196.8,-4.09,-4.53,-4.53,0,*53
1509257293.08,56520,9.75,71180.8,-4.09,-4.65,-4.53,0,*5C
1509257294.28,56521,9.75,71188.3,-4.09,-4.65,-4.61,0,*5C
1509257295.48,56522,9.81,71198.3,-4.09,-4.61,-4.61,0,*5B
1509257296.68,56523,9.81,71204.3,-4.09,-4.53,-4.53,0,*5A
1509257297.88,56524,9.75,71198.8,-4.09,-4.53,-4.53,0,*5D
1509257299.08,56525,9.81,71200.0,-4.09,-4.61,-4.53,0,*5D
1509257300.28,56526,9.81,71172.5,-4.09,-4.61,-4.61,0,*5F
1509257301.48,56527,9.81,71182.5,-4.09,-4.61,-4.53,0,*5F
1509257302.68,56528,9.81,71182.0,-4.09,-4.53,-4.53,0,*51
1509257303.88,56529,9.81,71172.8,-4.09,-4.53,-4.53,0,*50
1509257305.08,56530,9.81,71172.0,-4.09,-4.53,-4.61,0,*59
1509257306.29,56531,9.75,71166.0,-4.05,-4.57,-4.61,0,*50
1509257307.49,56532,9.75,71164.3,-4.09,-4.61,-4.61,0,*5A
1509257308.69,56533,9.75,71162.0,-4.09,-4.61,-4.53,0,*5A
1509257309.9,56534,9.81,71162.8,-4.09,-4.61,-4.53,0,*5D
1509257311.09,56535,9.81,71148.3,-4.09,-4.53,-4.61,0,*5C
1509257312.29,56536,9.75,71142.5,-4.09,-4.61,-4.61,0,*5E
1509257313.49,56537,9.75,71150.5,-4.09,-4.53,-4.61,0,*5E
1509257314.69,56538,9.81,71134.8,-4.09,-4.61,-4.53,0,*51
1509257315.9,56539,9.81,71152.5,-4.09,-4.65,-4.53,0,*54
1509257317.1,56540,9.81,71152.0,-4.09,-4.65,-4.61,0,*5B
1509257318.3,56541,9.81,71158.8,-4.09,-4.61,-4.61,0,*5E
1509257319.5,56542,9.75,71162.3,-4.09,-4.61,-4.61,0,*5D
1509257320.7,56543,9.81,71174.5,-4.09,-4.65,-4.65,0,*5C